Flag for France Weather past 2 weeks in Marseille, France

Now
91 °F

Sunny.


Feels Like: 89 °F
Forecast: 71 / 92 °F
Wind: 15 mph from South

Location: Marseille / Marignane

Current Time: Jul 5, 2015 at 5:50:36 PM

Latest Report: Jul 5, 2015 at 5:00 PM


Visibility: 10 mi

Pressure: 30.04 "Hg

Humidity: 30%

Dew point: 55 °F

Location of MarseilleLocation

Historic Weather in Marseille — Graph

°F

Marseille temperature yesterday

Maximum temperature yesterday: 95 °F (at 3:30 PM)
Minimum temperature yesterday: 73 °F (at 2:30 AM)
Average temperature yesterday: 84 °F

Past Weeks' High & Low Weather Summary

 TemperatureHumidityPressure
High95 °F (Jul 4, 3:30 PM)94% (Jun 23, 1:30 AM)30.21 "Hg (Jun 23, 1:30 AM)
Low61 °F (Jun 25, 6:30 AM)20% (Jul 4, 5:00 PM)29.83 "Hg (Jun 23, 5:00 AM)
Average78 °F52%30.06 "Hg
* Reported Jun 20 4:00 PM — Jul 5 4:30 PM, Marseille, Weather by CustomWeather, © 2015

Note: Actual official high and low records may vary slightly from our data, if they occured in-between our weather recording intervals... More about our weather records

Advertising

Marseille weather history for previous 24 hours

 ConditionsComfort  
Time TempWeatherWind HumidityBarometerVisibility
4:30 PM
Sun, Jul 5
91 °FSunny.15 mph28%30.07 "Hg10 mi
4:00 PM93 °FSunny.14 mph26%30.07 "Hg10 mi
3:30 PM93 °FSunny.13 mph28%30.07 "Hg10 mi
3:00 PM93 °FSunny.13 mph28%30.07 "Hg10 mi
2:30 PM93 °FSunny.14 mph26%30.07 "Hg10 mi
2:00 PM95 °FPassing clouds.13 mph25%30.07 "HgN/A
1:30 PM95 °FSunny.14 mph25%30.07 "Hg10 mi
1:00 PM93 °FPassing clouds.10 mph28%30.07 "HgN/A
12:30 PM93 °FSunny.13 mph28%30.07 "Hg10 mi
12:00 PM93 °FPassing clouds.10 mph30%30.07 "HgN/A
11:30 AM91 °FSunny.12 mph32%30.07 "Hg10 mi
11:00 AM91 °FPassing clouds.12 mph32%30.07 "HgN/A
10:30 AM90 °FSunny.9 mph33%30.07 "Hg10 mi
10:00 AM90 °FSunny.9 mph31%30.07 "Hg10 mi
9:30 AM86 °FSunny.9 mph33%30.07 "Hg10 mi
9:00 AM84 °FPassing clouds.7 mph37%30.07 "HgN/A
8:30 AM82 °FSunny.6 mph37%30.07 "Hg10 mi
8:00 AM81 °FSunny.6 mph39%30.07 "Hg10 mi
7:30 AM79 °FPassing clouds.5 mph45%30.07 "HgN/A
7:00 AM77 °FClear.No wind44%30.07 "Hg10 mi
6:30 AM73 °FClear.5 mph57%30.07 "Hg10 mi
5:30 AM72 °FClear.6 mph61%30.07 "Hg10 mi
5:00 AM73 °FClear.5 mph57%30.07 "Hg10 mi
4:30 AM75 °FClear.3 mph54%30.07 "Hg10 mi
4:00 AM73 °FClear.5 mph61%30.07 "Hg10 mi
3:30 AM72 °FClear.6 mph65%30.07 "Hg10 mi
3:00 AM73 °FClear.6 mph61%30.09 "Hg10 mi
2:30 AM73 °FClear.5 mph61%30.09 "Hg10 mi
2:00 AM73 °FClear.6 mph61%30.09 "Hg10 mi
1:30 AM73 °FClear.6 mph61%30.09 "Hg10 mi
1:00 AM75 °FClear.3 mph57%30.09 "Hg10 mi
12:30 AM77 °FClear.5 mph57%30.09 "Hg10 mi
12:00 AM77 °FClear.2 mph57%30.09 "Hg10 mi
11:30 PM
Sat, Jul 4
77 °FClear.3 mph61%30.12 "Hg10 mi
11:00 PM81 °FClear.2 mph62%30.12 "Hg10 mi
10:30 PM81 °FClear.3 mph62%30.12 "Hg10 mi
10:00 PM81 °FSunny.3 mph58%30.12 "Hg10 mi
9:30 PM82 °FSunny.6 mph55%30.12 "Hg10 mi
9:00 PM82 °FSunny.8 mph55%30.12 "Hg10 mi
8:30 PM84 °FSunny.8 mph48%30.12 "Hg10 mi
8:00 PM86 °FSunny.9 mph46%30.09 "Hg10 mi
7:30 PM88 °FSunny.12 mph35%30.09 "Hg10 mi
7:00 PM90 °FSunny.13 mph31%30.12 "Hg10 mi
6:30 PM91 °FSunny.8 mph34%30.12 "Hg10 mi
6:00 PM93 °FPassing clouds.7 mph24%30.12 "HgN/A
5:30 PM93 °FSunny.9 mph26%30.12 "Hg10 mi
5:00 PM95 °FSunny.10 mph20%30.12 "Hg10 mi
Weather by CustomWeather, © 2015

See weather overviewHow to use our weather pages